sat.trackr.live / text

‹ back to catalog

STARLINK-37138

NORAD 68308 · 2026-057Q

PAYLOAD ACTIVE UNKNOWN

§ Identity

Operator
Country
US
Launch date
2026-03-20
Launch site
AFWTR
Launch vehicle
Mass (kg)
RCS (m²)

Purposes: comms

External: N2YO · Heavens-Above · Gunter

§ Orbital elements

Epoch: 2026-05-24T22:08:18.748608Z

Period
91.41 min
Inclination
97.2847°
Eccentricity
0.0001702
Mean motion
15.75236449 rev/d
Perigee alt
342.8 km
Apogee alt
345.1 km
Semi-major
6,722.1 km
B*
9.8794e-4
RAAN
271.1237°
Arg perigee
57.2470°
Mean anomaly
302.8959°
Rev number
1,028

§ Raw data

STARLINK-371381 68308U 26057Q   26144.92243922  .00150149  00000+0  98794-3 0  99942 68308  97.2847 271.1237 0001702  57.2470 302.8959 15.75236449 10285

JSON: /api/v1/satellites/68308 · /tle

For live sub-satellite position, see the globe view (requires WebGL).

§ Visibility from observer

Set your observer location to see the next 7 days of passes ≥ 10°. The values pass through the URL so the page stays shareable.

No JS? Fill the form by hand. The geolocation button needs JavaScript.